Regional Weather Roundup
Issued by NWS Cleveland, OH

Home | Current Version | Previous Version | Text Only | Print | Product List | Glossary Off
Versions: 1 2 3 4 5 6 7 8 9 10 11 12 13 14 15 16 17 18 19 20 21 22 23 24 25 26 27 28 29 30 31 32 33 34 35 36 37 38 39 40 41 42 43 44 45 46 47 48 49 50

000
ASUS41 KCLE 210602
RWRCLE
OHIO REGIONAL WEATHER ROUNDUP
NATIONAL WEATHER SERVICE CLEVELAND, OH
100 AM EST TUE FEB 21 2017

NOTE: "FAIR" INDICATES FEW OR NO CLOUDS BELOW 12,000 FEET WITH NO
SIGNIFICANT WEATHER AND/OR OBSTRUCTIONS TO VISIBILITY.

OHZ001>008-015>018-024>027-034-035-043-044-210700-
   NORTHWEST OHIO

CITY           SKY/WX    TMP DP  RH WIND       PRES   REMARKS
DEFIANCE       CLOUDY    38  33  82 E6        30.05F
FINDLAY        CLOUDY    47  36  65 SE8       30.04F
TOLEDO EXPRESS CLOUDY    37  33  85 E5        30.06F
TOLEDO EXEC    CLOUDY    37  33  85 NE5       30.08F
LIMA           CLOUDY    50  42  74 SE14      30.03F
$$

OHZ009>014-019>023-028>033-038-089-210700-
   NORTHEAST OHIO

CITY           SKY/WX    TMP DP  RH WIND       PRES   REMARKS
CLE-HOPKINS    CLOUDY    47  31  53 S3        30.14S
CLE-LAKEFRONT  CLOUDY    37  33  85 NE5       30.12R
CUY CO. ARPT   NOT AVBL
LORAIN-ELYRIA  PTCLDY    38  32  79 SE8       30.09F
ASHTABULA      PTCLDY    46  32  58 SE9       30.13F
AKRON-CANTON   MOCLDY    49  31  49 SE7       30.12S
WOOSTER        CLOUDY    43  35  73 CALM      30.11S
MANSFIELD      CLOUDY    49  37  63 SE8       30.09F
YOUNGSTOWN     CLOUDY    48  30  49 SE12      30.13F
$$

OHZ042-051>053-060>062-070>072-077>081-210700-
  SOUTHWEST OHIO

CITY           SKY/WX    TMP DP  RH WIND       PRES   REMARKS
CINC-COVINGTON CLOUDY    53  39  59 SE9       30.04S
CINC-LUNKEN    CLOUDY    45  43  93 CALM      30.06F
HAMILTON       MOCLDY    49  42  77 CALM      30.06S
DAYTON         CLOUDY    50  41  71 SE10      30.05F
WRIGHT-PAT AFB CLOUDY    48  44  87 CALM      30.05F
DAYTON GENERAL MOCLDY    55  40  56 SE8       30.04F
WILMINGTON     MOCLDY    49  40  71 E6        30.05F
$$

OHZ036-037-039>041-045>050-054>059-063>069-073>076-082>088-210700-
  CENTRAL AND SOUTHEAST OHIO

CITY           SKY/WX    TMP DP  RH WIND       PRES   REMARKS
COLUMBUS       CLOUDY    52  38  58 E6        30.07F
OSU AIRPORT    CLOUDY    48  40  73 E3        30.08F
BOLTON FIELD   PTCLDY    47  41  80 E3        30.08F
RICKENBACK AFB PTCLDY    45  41  87 NE3       30.07F
NEWARK         CLOUDY    41  37  86 CALM      30.09F
MARION         PTCLDY    48  37  65 SE8       30.09F
LANCASTER      PTCLDY    44  40  85 CALM      30.09S
ZANESVILLE     CLOUDY    44  37  76 CALM      30.09F
NEW PHILLY     NOT AVBL
$$




USA.gov is the U.S. government's official web portal to all federal, state and local government web resources and services.